This is the latest recevied weather packets stored in our database for station/object SQ5JP-4. If no packets are shown the sender has not sent any weather packets the latest 10 day(s).
| Time | Temp. | Humidity | Pressure | Rain* | Wind** | Luminosity | Snow |
|---|---|---|---|---|---|---|---|
| 1777625086 | 15.56° C | 53% | 1007.9 hPa | - | - | - | - |
| 1777624185 | 15° C | 57% | 1007.9 hPa | - | - | - | - |
| 1777622388 | 14.44° C | 58% | 1008.1 hPa | - | - | - | - |
| 1777621488 | 13.33° C | 58% | 1007.8 hPa | - | - | - | - |
| 1777620588 | 14.44° C | 59% | 1007.8 hPa | - | - | - | - |
| 1777619688 | 13.89° C | 58% | 1007.7 hPa | - | - | - | - |
| 1777618788 | 13.33° C | 60% | 1007.7 hPa | - | - | - | - |
| 1777617887 | 12.78° C | 62% | 1007.7 hPa | - | - | - | - |
| 1777616987 | 12.22° C | 64% | 1007.5 hPa | - | - | - | - |
| 1777616087 | 11.11° C | 67% | 1007.5 hPa | - | - | - | - |
| 1777615187 | 10° C | 70% | 1007.6 hPa | - | - | - | - |
| 1777614287 | 9.44° C | 72% | 1007.6 hPa | - | - | - | - |
| 1777613387 | 8.89° C | 76% | 1007.7 hPa | - | - | - | - |
| 1777612487 | 8.33° C | 85% | 1007.7 hPa | - | - | - | - |
| 1777611587 | 7.78° C | 100% | 1007.7 hPa | - | - | - | - |
| 1777610687 | 7.22° C | 100% | 1007.9 hPa | - | - | - | - |
| 1777609786 | 6.11° C | 100% | 1008 hPa | - | - | - | - |
| 1777608886 | 5° C | 100% | 1008 hPa | - | - | - | - |
| 1777607985 | 4.44° C | 100% | 1007.9 hPa | - | - | - | - |
| 1777607085 | 4.44° C | 100% | 1007.9 hPa | - | - | - | - |
| 1777606185 | 4.44° C | 100% | 1007.8 hPa | - | - | - | - |
| 1777605285 | 4.44° C | 100% | 1007.9 hPa | - | - | - | - |
| 1777604385 | 4.44° C | 100% | 1008 hPa | - | - | - | - |
| 1777603485 | 4.44° C | 100% | 1008.1 hPa | - | - | - | - |
| 1777602585 | 4.44° C | 100% | 1008.2 hPa | - | - | - | - |
* Rain since midnight (hover to see other rain measurements)
** Current wind speed in m/s (hover to see current wind gust speed)